Regional Weather Roundup
Issued by NWS

Home | Current Version | Previous Version | Graphics & Text | Print | Product List | Glossary On
Versions: 1 2 3 4 5 6 7 8 9 10 11 12 13 14 15 16 17 18 19 20 21 22 23 24 25 26 27 28 29 30 31 32 33 34 35 36 37 38 39 40 41 42 43 44 45 46 47 48 49 50
000
ASUS45 KABQ 251001
RWRNM
WEATHER ROUNDUP FOR NEW MEXICO
NATIONAL WEATHER SERVICE ALBUQUERQUE NM
300 AM MST SUN JAN 25 2015

NOTE: "FAIR" MEANS FEW OR NO CLOUDS BELOW 12,000 FEET AGL WITH NO
       SIGNIFICANT WEATHER OR OBSTRUCTIONS TO VISION.

      THIS PRODUCT IS RELEASED AS TWO VERSIONS.  ONE VERSION NEAR
      THE TOP OF THE HOUR CONTAINING PRELIMINARY DATA FROM ALBUQUERQUE
      AND OTHER STATIONS.  A FINAL VERSION WITH ADDITIONAL DATA IS
      ISSUED ABOUT 10 MINUTES AFTER THE HOUR.

NMZ501-503-504-510>518-251100-
NORTHWEST PLATEAU/NORTHCENTRAL MOUNTAINS

CITY           SKY/WX    TMP DP  RH WIND       PRES   REMARKS
FARMINGTON     CLEAR     20  15  81 E3        30.29R
SANTA FE       PTCLDY    26  17  68 NW12      30.23S WCI  16
TAOS           PTCLDY    19  12  73 CALM      30.27S

$$
NMZ402-403-502-505>509-251100-
WESTCENTRAL MOUNTAINS/SOUTHWEST MOUNTAINS

CITY           SKY/WX    TMP DP  RH WIND       PRES   REMARKS
GALLUP         CLEAR     22  17  81 CALM      30.30S
GRANTS         CLEAR     19  16  88 NW6       30.31S WCI  11
SILVER CITY    CLEAR     27  18  69 N12       30.24F WCI  16

$$
NMZ407-409-411-412-251100-
SOUTHERN DESERTS

CITY           SKY/WX    TMP DP  RH WIND       PRES   REMARKS
DEMING         PTCLDY    27  21  78 CALM      30.23S
HOLLOMAN AFB   CLEAR     27  24  87 N7        30.21S WCI  20
ALAMOGORDO     CLEAR     25  21  86 NE6       30.22F WCI  18
T OR C         CLEAR     29  18  63 SW6       30.25R WCI  23

$$
NMZ519>523-251100-
CENTRAL VALLEYS/CENTRAL HIGHLANDS

CITY           SKY/WX    TMP DP  RH WIND       PRES   REMARKS
ALBUQUERQUE    PTCLDY    27  19  72 E3        30.27R
DOUBLE EAGLE   PTCLDY    31  17  55 NE5       30.26R WCI  27
MORIARTY ARPT  FAIR      23  18  81 E3        30.24S
CLINES CORNERS CLEAR     25  16  68 NW13      30.19S WCI  14
BELEN          FAIR      27  22  80 CALM      30.27S
SOCORRO        NOT AVBL

$$
NMZ524>526-539-540-251100-
SOUTHCENTRAL MOUNTAINS

CITY           SKY/WX    TMP DP  RH WIND       PRES   REMARKS
RUIDOSO        NOT AVBL

$$
NMZ527>531-251100-
NORTHEAST HIGHLANDS/NORTHEAST PLAINS

CITY           SKY/WX    TMP DP  RH WIND       PRES   REMARKS
LAS VEGAS      PTCLDY    33  14  45 NE6       30.20R WCI  28
RATON          CLEAR     32  18  56 SW5       30.16R WCI  27
CLAYTON        PTCLDY    33  24  69 NW12      30.16R WCI  24

$$
NMZ532>537-251100-
EASTCENTRAL PLAINS

CITY           SKY/WX    TMP DP  RH WIND       PRES   REMARKS
TUCUMCARI      PTCLDY    30  24  78 NW9       30.15R WCI  22
CANNON AFB     PTCLDY    34  25  70 NE7       30.13R WCI  27
CLOVIS AIRPORT PTCLDY    32  25  74 N12       30.13R WCI  23

$$
NMZ028-029-538-251100-
SOUTHEAST PLAINS

CITY           SKY/WX    TMP DP  RH WIND       PRES   REMARKS
ROSWELL        PTCLDY    29  25  85 W6        30.15R WCI  23
ARTESIA        PTCLDY    32  28  86 NW5       30.16R WCI  27
CARLSBAD       CLEAR     38  26  62 N9        30.13R WCI  31
HOBBS          PTCLDY    36  27  69 NW12      30.13S WCI  27


$$


USA.gov is the U.S. government's official web portal to all federal, state and local government web resources and services.